Weather History for KMQE - April, 2014

Change the Weather History Date:

Friday, April 25, 2014

  Actual Average (KBOS) Record (KBOS)
Temperature  
Mean Temperature 50 °F 51 °F  
Max Temperature 64 °F 59 °F 83 °F (1982)
Min Temperature 39 °F 44 °F 27 °F (1892)
Degree Days  
Heating Degree Days 14 14  
Month to date heating degree days 445  
Since 1 July heating degree days 5316  
Cooling Degree Days 0 0  
Month to date cooling degree days 0  
Year to date cooling degree days 0  
Moisture  
Dew Point 26 °F    
Average Humidity 43    
Maximum Humidity 60    
Minimum Humidity 21    
Precipitation  
Precipitation 0.00 in 0.11 in 2.10 in (1901)
Month to date precipitation 3.17  
Year to date precipitation 14.10  
Sea Level Pressure  
Sea Level Pressure 29.93 in    
Wind  
Wind Speed 11 mph (WSW)    
Max Wind Speed 16 mph    
Max Gust Speed 23 mph    
T = Trace of Precipitation, MM = Missing Value Source: NWS Daily Summary

Daily Weather History Graph

Daily Weather History Graph

Search for Another Location

Airport or City:

Trip Planner

Search our weather history database for the weather conditions in past years. The results will help you decide how hot, cold, wet, or windy it might be!

Date:

Astronomy

Apr. 25, 2014 Rise Set
Actual Time 5:48 AM EDT 7:37 PM EDT
Civil Twilight 5:18 AM EDT 8:07 PM EDT
Nautical Twilight 4:42 AM EDT 8:43 PM EDT
Astronomical Twilight 4:02 AM EDT 9:23 PM EDT
Moon 3:39 AM EDT (4/25) 3:51 PM EDT (4/25)
Length of Visible Light 14h 48m
Length of Day
13h 48m
Waning Crescent, 15% of the Moon is Illuminated
Apr 25
Waning Crescent
Apr 29
New
May 6
First Quarter
May 14
Full
May 21
Last Quarter

Hourly Weather History & Observations

Time (EDT) Temp. Windchill Dew Point Humidity Pressure Visibility Wind Dir Wind Speed Gust Speed Precip Events Conditions
12:54 AM 42.1 °F 35.2 °F 26.1 °F 53% 29.94 in - NW 12.7 mph - N/A   Unknown
1:54 AM 41.0 °F 34.3 °F 26.1 °F 55% 29.93 in - NW 11.5 mph - N/A   Unknown
2:54 AM 39.9 °F 32.5 °F 26.1 °F 58% 29.92 in - NW 12.7 mph - N/A   Unknown
3:54 AM 39.9 °F 32.5 °F 26.1 °F 58% 29.93 in - NW 12.7 mph - N/A   Unknown
4:54 AM 39.0 °F 31.4 °F 25.0 °F 57% 29.94 in - NW 12.7 mph - N/A   Unknown
5:54 AM 39.0 °F 31.4 °F 25.0 °F 57% 29.98 in - NW 12.7 mph - N/A   Unknown
6:54 AM 39.0 °F 31.4 °F 25.0 °F 57% 30.01 in - NW 12.7 mph - N/A   Unknown
7:54 AM 45.0 °F 39.3 °F 26.1 °F 48% 30.03 in - NNW 11.5 mph - N/A   Unknown
8:54 AM 48.9 °F - 26.1 °F 41% 30.02 in - WNW 5.8 mph - N/A   Unknown
9:54 AM 51.1 °F - 25.0 °F 36% 30.01 in - Variable 4.6 mph - N/A   Unknown
10:54 AM 53.1 °F - 25.0 °F 34% 30.01 in - Calm Calm - N/A   Unknown
11:54 AM 55.0 °F - 21.9 °F 28% 29.99 in - NW 8.1 mph - N/A   Unknown
12:54 PM 57.0 °F - 21.9 °F 26% 29.96 in - Variable 3.5 mph - N/A   Unknown
1:54 PM 59.0 °F - 19.9 °F 22% 29.94 in - Variable 3.5 mph - N/A   Unknown
2:54 PM 61.0 °F - 21.9 °F 22% 29.93 in - Variable 6.9 mph - N/A   Unknown
3:54 PM 62.1 °F - 21.0 °F 21% 29.90 in - SSW 6.9 mph - N/A   Unknown
4:54 PM 61.0 °F - 28.9 °F 30% 29.88 in - South 12.7 mph 21.9 mph N/A   Unknown
5:54 PM 57.0 °F - 27.0 °F 32% 29.87 in - South 12.7 mph 23.0 mph N/A   Unknown
6:54 PM 53.1 °F - 28.0 °F 38% 29.87 in - South 16.1 mph 23.0 mph N/A   Unknown
7:54 PM 50.0 °F - 28.0 °F 43% 29.86 in - South 15.0 mph 20.7 mph N/A   Unknown
8:54 PM 46.9 °F - 28.9 °F 50% 29.88 in - South 13.8 mph - N/A   Unknown
9:54 PM 46.9 °F - 30.0 °F 52% 29.89 in - South 11.5 mph - N/A   Unknown
10:54 PM 46.0 °F 40.6 °F 30.9 °F 56% 29.88 in - South 11.5 mph - N/A   Unknown
11:54 PM 45.0 °F 38.9 °F 32.0 °F 60% 29.86 in - South 12.7 mph - N/A   Unknown